Hourly Weather Kleban

Today, 29 July, Thursday

Time Temperature Precipitation Wind Pressure Humidity
00:00 +19°C° 0 mm 2 mps 736 mmHg 82%
01:00 +18°C° 0 mm 2 mps 736 mmHg 85%
02:00 +18°C° 0 mm 2 mps 736 mmHg 87%
03:00 +18°C° 0 mm 2 mps 735 mmHg 88%
04:00 +18°C° 0 mm 2 mps 735 mmHg 88%
05:00 +18°C° 0 mm 2 mps 735 mmHg 89%
06:00 +20°C° 0 mm 2 mps 735 mmHg 83%
07:00 +21°C° 0 mm 2 mps 735 mmHg 76%
08:00 +25°C° 0 mm 2 mps 735 mmHg 65%
09:00 +26°C° 0 mm 2 mps 735 mmHg 58%
10:00 +28°C° 0 mm 2 mps 735 mmHg 51%
11:00 +29°C° 0 mm 2 mps 735 mmHg 44%
12:00 +30°C° 0 mm 2 mps 735 mmHg 42%
13:00 +30°C° 0 mm 2 mps 734 mmHg 41%
14:00 +31°C° 0 mm 2 mps 734 mmHg 39%
15:00 +27°C° 2.6 mm 3 mps 734 mmHg 58%
16:00 +24°C° 2.6 mm 3 mps 734 mmHg 77%
17:00 +19°C° 2.6 mm 4 mps 734 mmHg 96%
18:00 +19°C° 0.7 mm 3 mps 734 mmHg 96%
19:00 +19°C° 0.7 mm 2 mps 733 mmHg 96%
20:00 +19°C° 0.7 mm 1 mps 733 mmHg 96%
21:00 +18°C° 0 mm 2 mps 734 mmHg 96%
22:00 +17°C° 0 mm 2 mps 734 mmHg 96%
23:00 +17°C° 0 mm 2 mps 734 mmHg 97%

Tomorrow, 30 July, Friday

Time Temperature Precipitation Wind Pressure Humidity
00:00 +17°C° 0 mm 2 mps 734 mmHg 96%
01:00 +17°C° 0 mm 2 mps 734 mmHg 96%
02:00 +17°C° 0 mm 2 mps 734 mmHg 96%
03:00 +16°C° 0 mm 2 mps 734 mmHg 95%
04:00 +16°C° 0 mm 2 mps 734 mmHg 94%
05:00 +16°C° 0 mm 2 mps 734 mmHg 94%
06:00 +17°C° 0 mm 3 mps 734 mmHg 88%
07:00 +19°C° 0 mm 3 mps 734 mmHg 83%
08:00 +20°C° 0 mm 3 mps 735 mmHg 77%
09:00 +22°C° 0 mm 4 mps 735 mmHg 68%
10:00 +23°C° 0 mm 4 mps 735 mmHg 58%
11:00 +26°C° 0 mm 4 mps 734 mmHg 48%
12:00 +25°C° 0 mm 4 mps 734 mmHg 50%
13:00 +25°C° 0 mm 5 mps 734 mmHg 52%
14:00 +23°C° 0 mm 5 mps 734 mmHg 53%
15:00 +25°C° 0 mm 5 mps 734 mmHg 50%
16:00 +24°C° 0 mm 6 mps 734 mmHg 46%
17:00 +24°C° 0 mm 6 mps 734 mmHg 43%
18:00 +23°C° 0 mm 5 mps 734 mmHg 46%
19:00 +22°C° 0 mm 5 mps 733 mmHg 49%
20:00 +20°C° 0 mm 4 mps 733 mmHg 52%
21:00 +19°C° 0 mm 4 mps 733 mmHg 57%
22:00 +18°C° 0 mm 4 mps 733 mmHg 63%
23:00 +17°C° 0 mm 4 mps 733 mmHg 68%

Day after tomorrow, 31 July, Saturday

Time Temperature Precipitation Wind Pressure Humidity
00:00 +15°C° 0 mm 4 mps 733 mmHg 72%
01:00 +14°C° 0 mm 4 mps 733 mmHg 76%
02:00 +14°C° 0 mm 4 mps 733 mmHg 80%
03:00 +14°C° 0 mm 4 mps 733 mmHg 80%
04:00 +14°C° 0 mm 4 mps 733 mmHg 79%
05:00 +14°C° 0 mm 4 mps 733 mmHg 78%
06:00 +16°C° 0 mm 5 mps 734 mmHg 71%
07:00 +19°C° 0 mm 5 mps 734 mmHg 63%
08:00 +21°C° 0 mm 6 mps 734 mmHg 55%
09:00 +22°C° 0 mm 6 mps 734 mmHg 50%
10:00 +23°C° 0 mm 7 mps 734 mmHg 45%
11:00 +26°C° 0 mm 7 mps 734 mmHg 40%
12:00 +26°C° 0 mm 7 mps 734 mmHg 39%
13:00 +27°C° 0 mm 6 mps 734 mmHg 37%
14:00 +27°C° 0 mm 6 mps 734 mmHg 36%
15:00 +27°C° 0 mm 6 mps 734 mmHg 38%
16:00 +27°C° 0 mm 5 mps 734 mmHg 40%
17:00 +27°C° 0 mm 5 mps 734 mmHg 42%
18:00 +25°C° 0 mm 4 mps 734 mmHg 49%
19:00 +22°C° 0 mm 3 mps 734 mmHg 57%
20:00 +20°C° 0 mm 2 mps 734 mmHg 64%
21:00 +21°C° 0 mm 1 mps 734 mmHg 65%
22:00 +20°C° 0 mm 1 mps 734 mmHg 65%
23:00 +20°C° 0 mm 1 mps 734 mmHg 66%

1 August, Sunday

Time Temperature Precipitation Wind Pressure Humidity
00:00 +18°C° 0.5 mm 2 mps 734 mmHg 72%
01:00 +18°C° 0.5 mm 3 mps 734 mmHg 79%
02:00 +17°C° 0.5 mm 3 mps 734 mmHg 85%
03:00 +17°C° 1.9 mm 3 mps 733 mmHg 88%
04:00 +17°C° 1.9 mm 2 mps 733 mmHg 92%
05:00 +18°C° 1.9 mm 1 mps 733 mmHg 96%
06:00 +18°C° 0 mm 2 mps 733 mmHg 93%
07:00 +19°C° 0 mm 2 mps 733 mmHg 90%
08:00 +19°C° 0 mm 3 mps 733 mmHg 87%
09:00 +21°C° 0.1 mm 3 mps 734 mmHg 79%
10:00 +22°C° 0.1 mm 4 mps 734 mmHg 71%
11:00 +25°C° 0.1 mm 4 mps 734 mmHg 63%
12:00 +26°C° 0.1 mm 5 mps 734 mmHg 56%
13:00 +27°C° 0.1 mm 5 mps 734 mmHg 48%
14:00 +28°C° 0.1 mm 6 mps 734 mmHg 40%
15:00 +27°C° 0 mm 5 mps 734 mmHg 42%
16:00 +27°C° 0 mm 5 mps 734 mmHg 44%
17:00 +26°C° 0 mm 5 mps 734 mmHg 46%
18:00 +25°C° 0 mm 4 mps 734 mmHg 53%
19:00 +22°C° 0 mm 3 mps 734 mmHg 59%
20:00 +20°C° 0 mm 3 mps 734 mmHg 66%
21:00 +19°C° 0 mm 2 mps 734 mmHg 68%
22:00 +19°C° 0 mm 2 mps 735 mmHg 69%
23:00 +18°C° 0 mm 2 mps 735 mmHg 70%

2 August, Monday

Time Temperature Precipitation Wind Pressure Humidity
00:00 +18°C° 0 mm 2 mps 734 mmHg 73%
01:00 +17°C° 0 mm 2 mps 734 mmHg 76%
02:00 +17°C° 0 mm 2 mps 734 mmHg 78%
03:00 +17°C° 0 mm 2 mps 734 mmHg 77%
04:00 +17°C° 0 mm 2 mps 734 mmHg 76%
05:00 +17°C° 0 mm 2 mps 734 mmHg 75%
06:00 +18°C° 1 mm 1 mps 733 mmHg 81%
07:00 +16°C° 1 mm 1 mps 733 mmHg 87%
08:00 +16°C° 1 mm 1 mps 733 mmHg 94%
09:00 +16°C° 0.8 mm 1 mps 732 mmHg 93%
10:00 +17°C° 0.8 mm 2 mps 732 mmHg 92%
11:00 +17°C° 0.8 mm 3 mps 732 mmHg 92%
12:00 +18°C° 0.6 mm 2 mps 732 mmHg 91%
13:00 +19°C° 0.6 mm 2 mps 731 mmHg 90%
14:00 +21°C° 0.6 mm 1 mps 731 mmHg 89%
15:00 +20°C° 0.5 mm 2 mps 731 mmHg 89%
16:00 +20°C° 0.5 mm 2 mps 731 mmHg 88%
17:00 +21°C° 0.5 mm 3 mps 730 mmHg 87%
18:00 +19°C° 0.3 mm 3 mps 730 mmHg 91%
19:00 +18°C° 0.3 mm 3 mps 730 mmHg 94%
20:00 +17°C° 0.3 mm 3 mps 730 mmHg 97%
21:00 +15°C° 0.3 mm 4 mps 731 mmHg 96%
22:00 +14°C° 0.3 mm 5 mps 731 mmHg 96%
23:00 +14°C° 0.3 mm 6 mps 731 mmHg 95%

3 August, Tuesday

Time Temperature Precipitation Wind Pressure Humidity
00:00 +13°C° 0.5 mm 6 mps 732 mmHg 95%
01:00 +13°C° 0.5 mm 6 mps 732 mmHg 95%
02:00 +12°C° 0.5 mm 7 mps 732 mmHg 95%
03:00 +13°C° 0.5 mm 6 mps 733 mmHg 95%
04:00 +13°C° 0.5 mm 6 mps 733 mmHg 96%
05:00 +12°C° 0.5 mm 5 mps 733 mmHg 96%
06:00 +13°C° 0.1 mm 5 mps 734 mmHg 94%
07:00 +14°C° 0.1 mm 5 mps 734 mmHg 92%
08:00 +14°C° 0.1 mm 5 mps 734 mmHg 90%
09:00 +15°C° 0.3 mm 5 mps 735 mmHg 86%
10:00 +16°C° 0.3 mm 5 mps 735 mmHg 81%
11:00 +16°C° 0.3 mm 5 mps 736 mmHg 77%
12:00 +17°C° 0.6 mm 5 mps 736 mmHg 73%
13:00 +19°C° 0.6 mm 6 mps 736 mmHg 68%
14:00 +19°C° 0.6 mm 6 mps 736 mmHg 64%
15:00 +19°C° 0.1 mm 6 mps 737 mmHg 63%
16:00 +19°C° 0.1 mm 5 mps 737 mmHg 62%
17:00 +19°C° 0.1 mm 5 mps 737 mmHg 61%
18:00 +18°C° 0 mm 4 mps 737 mmHg 66%
19:00 +16°C° 0 mm 3 mps 738 mmHg 70%
20:00 +15°C° 0 mm 1 mps 738 mmHg 74%
21:00 +14°C° 0 mm 2 mps 738 mmHg 75%
22:00 +13°C° 0 mm 2 mps 738 mmHg 75%
23:00 +13°C° 0 mm 2 mps 739 mmHg 76%
Show more